| time (UTC) | temp F | wind direction | speed knots | gust knots | rain 1hr in | rain 24hr in | rain mn in | humidity % | barometer mb |
| 20260905222600 | 70 | 326 | 2.6 | 13.9 | 0.00 | 0.00 | 0.00 | 63 | 1018.4 |
| 20260905221100 | 70 | 341 | 1.7 | 10.4 | 0.00 | 0.00 | 0.00 | 65 | 1018.1 |
| 20260905215601 | 69 | 11 | 1.7 | 10.4 | 0.00 | 0.00 | 0.00 | 65 | 1018.0 |
| 20260905214101 | 69 | 245 | 3.5 | 21.7 | 0.00 | 0.00 | 0.00 | 65 | 1017.9 |
| 20260905212601 | 70 | 301 | 2.6 | 21.7 | 0.00 | 0.00 | 0.00 | 65 | 1017.8 |
| 20260905211100 | 69 | 324 | 1.7 | 13.9 | 0.00 | 0.00 | 0.00 | 65 | 1017.7 |
| 20260905205600 | 69 | 272 | 1.7 | 10.4 | 0.00 | 0.00 | 0.00 | 65 | 1017.5 |
| 20260905204100 | 69 | 271 | 0.9 | 3.5 | 0.00 | 0.00 | 0.00 | 65 | 1017.6 |
| 20260905202601 | 70 | 274 | 0.9 | 7.0 | 0.00 | 0.00 | 0.00 | 64 | 1017.5 |
| 20260905201100 | 70 | 291 | 0.9 | 7.0 | 0.00 | 0.00 | 0.00 | 63 | 1017.5 |
| 20260905194101 | 71 | 273 | 0.9 | 7.0 | 0.00 | 0.00 | 0.00 | 61 | 1017.3 |
| 20260905192600 | 71 | 307 | 0.9 | 7.0 | 0.00 | 0.00 | 0.00 | 61 | 1017.2 |
| 20260905191100 | 71 | 297 | 2.6 | 13.9 | 0.00 | 0.00 | 0.00 | 60 | 1017.0 |
| 20260905185600 | 71 | 290 | 1.7 | 10.4 | 0.00 | 0.00 | 0.00 | 60 | 1017.0 |
| 20260905184100 | 71 | 295 | 0.9 | 7.0 | 0.00 | 0.00 | 0.00 | 60 | 1016.8 |
| 20260905182600 | 71 | 297 | 0.9 | 3.5 | 0.00 | 0.00 | 0.00 | 60 | 1016.6 |
| 20260905181100 | 72 | 251 | 0.9 | 3.5 | 0.00 | 0.00 | 0.00 | 56 | 1016.3 |
| 20260905175600 | 73 | 264 | 0.9 | 7.0 | 0.00 | 0.00 | 0.00 | 50 | 1016.4 |
| 20260905174101 | 74 | 278 | 1.7 | 10.4 | 0.00 | 0.00 | 0.00 | 48 | 1016.0 |
| 20260905172600 | 75 | 282 | 0.9 | 7.0 | 0.00 | 0.00 | 0.00 | 48 | 1016.0 |
| 20260905171101 | 75 | 272 | 5.2 | 28.7 | 0.00 | 0.00 | 0.00 | 48 | 1015.6 |
| 20260905165600 | 75 | 287 | 1.7 | 7.0 | 0.00 | 0.00 | 0.00 | 54 | 1015.5 |
| 20260905164101 | 75 | 353 | 0.9 | 7.0 | 0.00 | 0.00 | 0.00 | 54 | 1015.3 |
| 20260905162600 | 76 | 318 | 1.7 | 7.0 | 0.00 | 0.00 | 0.00 | 53 | 1015.2 |
| 20260905161100 | 77 | 328 | 2.6 | 13.9 | 0.00 | 0.00 | 0.00 | 51 | 1015.5 |
| 20260905155601 | 77 | 283 | 2.6 | 10.4 | 0.00 | 0.00 | 0.00 | 51 | 1015.3 |
| 20260905154101 | 78 | 250 | 2.6 | 13.9 | 0.00 | 0.00 | 0.00 | 50 | 1015.2 |
| 20260905152600 | 78 | 150 | 1.7 | 10.4 | 0.00 | 0.00 | 0.00 | 51 | 1015.3 |
| 20260905151101 | 78 | 5 | 5.2 | 25.2 | 0.00 | 0.00 | 0.00 | 52 | 1015.2 |
| 20260905145601 | 77 | 217 | 1.7 | 7.0 | 0.00 | 0.00 | 0.00 | 53 | 1015.3 |
| 20260905144100 | 76 | 247 | 1.7 | 10.4 | 0.00 | 0.00 | 0.00 | 54 | 1015.2 |
| 20260905142600 | 77 | 287 | 3.5 | 18.2 | 0.00 | 0.00 | 0.00 | 53 | 1015.4 |
| 20260905141101 | 77 | 348 | 5.2 | 25.2 | 0.00 | 0.00 | 0.00 | 54 | 1015.6 |
| 20260905135600 | 77 | 319 | 3.5 | 18.2 | 0.00 | 0.00 | 0.00 | 55 | 1015.6 |
| 20260905134101 | 77 | 283 | 2.6 | 21.7 | 0.00 | 0.00 | 0.00 | 55 | 1015.5 |
| 20260905132601 | 77 | 313 | 1.7 | 10.4 | 0.00 | 0.00 | 0.00 | 55 | 1015.2 |
| 20260905131100 | 79 | 203 | 3.5 | 18.2 | 0.00 | 0.00 | 0.00 | 53 | 1015.6 |
| 20260905125600 | 78 | 258 | 1.7 | 10.4 | 0.00 | 0.00 | 0.00 | 51 | 1015.5 |
| 20260905124100 | 77 | 345 | 1.7 | 13.9 | 0.00 | 0.00 | 0.00 | 52 | 1015.6 |
| 20260905122601 | 77 | 234 | 1.7 | 7.0 | 0.00 | 0.00 | 0.00 | 52 | 1015.8 |
| 20260905121100 | 76 | 307 | 3.5 | 13.9 | 0.00 | 0.00 | 0.00 | 52 | 1015.6 |
| 20260905115601 | 76 | 347 | 3.5 | 18.2 | 0.00 | 0.00 | 0.00 | 53 | 1015.6 |
| 20260905114100 | 76 | 314 | 1.7 | 7.0 | 0.00 | 0.00 | 0.00 | 55 | 1015.8 |
| 20260905112600 | 75 | 307 | 2.6 | 13.9 | 0.00 | 0.00 | 0.00 | 56 | 1015.9 |
| 20260905111100 | 71 | 321 | 2.6 | 18.2 | 0.00 | 0.00 | 0.00 | 63 | 1016.1 |
| 20260905105600 | 69 | 249 | 2.6 | 18.2 | 0.00 | 0.00 | 0.00 | 64 | 1016.1 |
| 20260905104101 | 69 | 268 | 4.3 | 21.7 | 0.00 | 0.00 | 0.00 | 63 | 1016.2 |
| 20260905102600 | 69 | 300 | 2.6 | 10.4 | 0.00 | 0.00 | 0.00 | 63 | 1016.4 |
| 20260905101100 | 69 | 266 | 1.7 | 7.0 | 0.00 | 0.00 | 0.00 | 63 | 1016.4 |
| 20260905095600 | 69 | 339 | 4.3 | 21.7 | 0.00 | 0.00 | 0.00 | 64 | 1016.4 |
| 20260905094100 | 69 | 252 | 2.6 | 10.4 | 0.00 | 0.00 | 0.00 | 63 | 1016.4 |
| 20260905092601 | 71 | 250 | 0.9 | 3.5 | 0.00 | 0.00 | 0.00 | 61 | 1016.6 |
| 20260905091100 | 70 | 326 | 1.7 | 7.0 | 0.00 | 0.00 | 0.00 | 59 | 1016.5 |
| 20260905085601 | 69 | 258 | 0.9 | 7.0 | 0.00 | 0.00 | 0.00 | 62 | 1016.5 |
| 20260905084100 | 69 | 264 | 5.2 | 28.7 | 0.00 | 0.00 | 0.00 | 60 | 1016.4 |
| 20260905082600 | 70 | 298 | 1.7 | 10.4 | 0.00 | 0.00 | 0.00 | 58 | 1016.4 |
| 20260905081100 | 70 | 298 | 1.7 | 7.0 | 0.00 | 0.00 | 0.00 | 56 | 1016.3 |
| 20260905075600 | 70 | 272 | 0.9 | 7.0 | 0.00 | 0.00 | 0.00 | 56 | 1016.2 |
| 20260905074100 | 69 | 300 | 1.7 | 7.0 | 0.00 | 0.00 | 0.00 | 56 | 1016.4 |
| 20260905072601 | 69 | 60 | 1.7 | 10.4 | 0.00 | 0.00 | 0.00 | 60 | 1016.4 |
| 20260905071101 | 70 | 98 | 1.7 | 7.0 | 0.00 | 0.00 | 0.00 | 59 | 1016.1 |
| 20260905065600 | 71 | 241 | 0.9 | 7.0 | 0.00 | 0.00 | 0.00 | 54 | 1015.9 |
| 20260905064101 | 71 | 358 | 0.0 | 3.5 | 0.00 | 0.00 | 0.00 | 54 | 1015.5 |
| 20260905062600 | 71 | 232 | 0.9 | 3.5 | 0.00 | 0.00 | 0.00 | 57 | 1015.3 |
| 20260905061101 | 72 | 202 | 3.5 | 21.7 | 0.00 | 0.00 | 0.00 | 56 | 1014.8 |
| 20260905055600 | 71 | 266 | 0.9 | 7.0 | 0.00 | 0.00 | 0.00 | 56 | 1013.8 |
| 20260905054101 | 71 | 296 | 0.9 | 3.5 | 0.00 | 0.00 | 0.00 | 57 | 1013.6 |
| 20260905052600 | 71 | 6 | 0.9 | 7.0 | 0.00 | 0.00 | 0.00 | 56 | 1013.2 |
| 20260905051100 | 72 | 273 | 0.9 | 3.5 | 0.00 | 0.00 | 0.00 | 55 | 1012.7 |
| 20260905045601 | 72 | 30 | 0.9 | 7.0 | 0.00 | 0.00 | 0.00 | 55 | 1012.3 |
| 20260905044100 | 72 | 307 | 1.7 | 7.0 | 0.00 | 0.00 | 0.00 | 59 | 1011.7 |
| 20260905042600 | 72 | 302 | 0.9 | 3.5 | 0.00 | 0.00 | 0.00 | 60 | 1011.3 |
| 20260905041059 | 73 | 224 | 2.6 | 18.2 | 0.00 | 0.00 | 0.00 | 64 | 1011.3 |
| 20260905035600 | 74 | 225 | 0.9 | 7.0 | 0.00 | 0.00 | 0.00 | 61 | 1010.6 |
| 20260905034100 | 74 | 290 | 1.7 | 7.0 | 0.00 | 0.00 | 0.00 | 59 | 1010.3 |
| 20260905032600 | 71 | 254 | 0.0 | 3.5 | 0.00 | 0.00 | 0.00 | 67 | 1010.0 |
| 20260905031100 | 70 | 240 | 0.0 | 0.0 | 0.00 | 0.00 | 0.00 | 70 | 1009.5 |
| 20260905025601 | 71 | 247 | 0.0 | 0.0 | 0.00 | 0.00 | 0.00 | 71 | 1009.8 |
| 20260905024059 | 70 | 257 | 0.0 | 0.0 | 0.00 | 0.00 | 0.00 | 72 | 1009.7 |
| 20260905022559 | 70 | 251 | 0.9 | 3.5 | 0.00 | 0.00 | 0.00 | 73 | 1009.6 |
| 20260905021100 | 69 | 214 | 0.9 | 3.5 | 0.00 | 0.00 | 0.00 | 73 | 1009.5 |
| 20260905015559 | 69 | 229 | 0.9 | 7.0 | 0.00 | 0.00 | 0.00 | 75 | 1009.4 |
| 20260905014059 | 69 | 246 | 0.0 | 0.0 | 0.00 | 0.00 | 0.00 | 74 | 1009.2 |
| 20260905012600 | 69 | 202 | 1.7 | 7.0 | 0.00 | 0.00 | 0.00 | 73 | 1009.4 |
| 20260905011059 | 70 | 208 | 0.0 | 3.5 | 0.00 | 0.00 | 0.00 | 72 | 1009.0 |
| 20260905005601 | 70 | 216 | 0.0 | 0.0 | 0.00 | 0.00 | 0.00 | 71 | 1009.0 |
| 20260905004101 | 70 | 179 | 0.0 | 3.5 | 0.00 | 0.00 | 0.00 | 70 | 1009.0 |
| 20260905002600 | 70 | 262 | 0.0 | 3.5 | 0.00 | 0.00 | 0.00 | 70 | 1009.4 |
| 20260905001100 | 70 | 237 | 0.9 | 3.5 | 0.00 | 0.00 | 0.00 | 70 | 1009.0 |
| 20260904235600 | 70 | 230 | 0.0 | 0.0 | 0.00 | 0.00 | 0.00 | 70 | 1009.1 |
| 20260904234100 | 70 | 237 | 0.0 | 0.0 | 0.00 | 0.00 | 0.00 | 70 | 1008.8 |
| 20260904232600 | 70 | 263 | 0.0 | 0.0 | 0.00 | 0.00 | 0.00 | 69 | 1008.7 |
| 20260904231059 | 70 | 246 | 0.0 | 0.0 | 0.00 | 0.00 | 0.00 | 69 | 1008.7 |
| 20260904225600 | 71 | 222 | 0.9 | 3.5 | 0.00 | 0.00 | 0.00 | 68 | 1008.7 |
| 20260904224100 | 72 | 239 | 0.0 | 3.5 | 0.00 | 0.00 | 0.00 | 66 | 1008.6 |